SCP
0 0 0 0 0 0 0 0 0 0 0 0 0 0 -0 -0 -0 -0 -0 -0 -0 -0 0 0 0 0 0 0 0 0 0 0 0 0 0 0 0 0
0 0 0 0 0 0 0 0 0 0 0 0 0 0 -0 -0 -0 -0 -0 -0 -0 -0 0 0 0 0 0 0 0 0 0 0 0 0 0 0 0 0
0 0 0 0 0 0 0 0 0 0 0 0 0 0 0 0 -0 -0 -0 0 0 0 0 0 0 0 0 0 0 0 0 0 0 0 0 0 0 0
0 0 0 0 0 0 0 0 0 0 0 0 0 0 0 0 0 0 0 0 0 0 0 0 0 0 0 0 0 0 0 0 0 0 0 0 0 0
0 0 0 0 0 0 0 0 0 0 0 0 0 0 0 0 0 0 0 0 0 0 0 0 0 0 0 0 -0 0 0 0 0 0 0 0 0 0
0 0 0 0 0 0 0 0 0 0 0 0 0 0 0 0 0 0 0 0 0 0 0 0 0 0 0 0 0 -0 0 0 0 0 0 0 0 0
0 0 0 0 0 0 0 0 0 0 0 0 0 0 0 0 0 0 0 0 0 0 0 0 0 0 0 0 0 0 0 0 0 0 0 0 0 0
0 0 0 0 0 0 0 0 0 0 0 0 0 0 0 0 0 0 0 0 0 0 0 0 0 0 0 0 0 0 0 0 0 0 0 0 0 0
0 0 0 0 0 0 0 0 0 0 0 0 0 0 0 0 0 0 0 0 0 0 0 0 0 0 0 0 0 0 0 0 0 0 0 0 0 0
0 0 0 0 0 0 0 0 0 0 0 0 0 0 0 0 0 0 0 0 0 0 0 0 0 0 0 0 0 0 0 0 0 0 0 0 0 0
0 0 0 0 0 0 0 0 0 0 0 0 0 0 0 0 0 0 0 0 0 0 0 0 0 0 0 0 0 0 0 0 0 0 0 0 0 0
0 0 0 0 0 0 0 0 0 0 0 0 0 0 0 0 0 0 0 0 0 0 0 0 0 0 0 0 0 0 0 0 0 0 0 0 0 0
0 0 0 0 0 0 0 0 0 0 0 0 0 0 0 0 0 0 0 0 0 0 0 0 0 0 0 0 0 0 0 0 0 0 0 0 0 0
0 0 0 0 0 0 0 0 0 0 0 0 0 0 0 0 0 0 0 0 0 0 0 0 0 0 0 0 0 0 0 0 0 0 0 0 0 0
0 0 0 0 0 0 0 0 0 0 0 0 0 0 0 0 0 0 0 0 0 0 0 0 0 0 0 0 0 0 0 0 0 0 0 0 0 0
0 0 0 0 0 0 0 0 0 0 0 0 0 0 0 0 0 0 0 0 0 0 0 0 0 0 0 0 0 0 0 0 0 0 0 0 0 0
0 0 0 0 0 0 0 0 0 0 0 0 0 0 0 0 0 0 0 0 0 0 0 0 0 0 0 0 0 0 0 0 0 0 0 0 0 0
0 0 0 0 0 0 0 0 0 0 0 0 0 0 0 0 0 0 0 0 0 0 0 0 0 0 0 0 0 0 0 0 0 0 0 0 0 0
0 0 0 0 0 0 0 0 0 0 0 0 0 0 0 0 0 0 0 0 0 0 0 0 0 0 0 0 0 0 0 0 0 0 0 0 0 0
0 0 0 0 0 0 0 0 0 0 0 0 0 0 0 0 0 0 0 0 0 0 0 0 0 0 0 0 0 0 0 0 0 -0 0 0 0 0
0 0 0 0 0 0 0 0 0 0 0 0 0 0 0 0 0 0 0 0 0 0 0 0 0 0 0 0 0 0 0 0 0 -0 0 0 0 0
0 0 0 0 0 0 0 0 0 0 0 0 0 0 0 0 0 0 0 0 0 0 0 0 0 0 0 0 0 0 0 0 0 0 -0 0 0 0
0 0 0 0 0 0 0 0 0 0 0 0 0 0 0 0 0 0 0 0 0 0 0 0 0 0 0 0 0 0 0 0 0 0 0 -0 0 0
Wind_Speed
5 5 4 4 4 4 3 3 2 1 2 2 1 1 1 3 4 4 5 7 7 8 9 10 11 11 11 11 12 12 12 12 12 11 12 13 14 16
3 5 5 4 5 5 5 4 3 3 2 1 1 1 1 3 4 3 3 4 7 8 10 11 11 11 11 11 12 13 13 14 13 13 14 15 15 17
2 3 5 4 5 5 5 4 4 4 3 2 0 1 1 3 4 3 3 3 3 7 9 11 12 12 12 12 13 13 13 14 14 15 16 16 15 16
4 4 4 2 4 4 4 5 5 5 4 3 1 0 1 1 3 3 3 4 4 6 8 10 11 12 12 12 13 13 14 14 15 15 15 15 15 16
4 3 3 2 2 2 3 3 3 3 3 3 2 1 0 1 1 1 0 1 2 3 6 9 10 11 10 11 12 12 13 14 14 14 14 13 13 12
5 5 4 4 3 2 1 2 2 3 3 2 2 1 1 1 1 1 1 1 2 3 2 0 3 6 8 10 11 10 12 13 14 13 12 12 11 9
6 6 6 6 7 5 3 2 2 2 2 2 1 1 1 1 1 1 0 1 1 3 2 3 2 2 2 4 8 10 12 13 13 12 11 9 8 7
6 5 5 7 6 9 11 10 7 4 2 2 1 1 1 1 1 1 0 0 0 2 3 2 2 2 3 4 7 6 5 9 10 10 8 7 6 5
5 5 5 6 6 5 8 10 11 12 8 3 3 3 2 2 1 1 0 1 1 2 2 1 2 2 3 5 9 10 9 5 3 5 6 7 7 6
5 4 4 6 6 6 7 8 8 8 7 5 3 3 2 2 1 1 1 2 1 2 3 1 2 1 1 2 7 9 9 9 6 2 3 5 5 5
4 4 5 6 9 9 7 7 7 7 7 7 6 6 5 4 1 1 1 1 1 2 3 2 2 2 1 1 3 7 8 7 5 3 0 2 2 2
3 4 6 6 7 7 6 6 7 5 5 5 5 6 5 5 6 3 2 2 1 1 2 1 1 1 1 1 1 4 5 6 5 3 3 1 2 2
2 2 3 5 5 5 4 3 2 1 3 4 4 4 4 5 5 5 3 1 1 0 1 2 1 1 1 1 2 3 4 4 4 4 3 2 3 3
0 1 3 6 6 5 3 2 1 2 2 3 3 3 4 4 4 4 4 3 2 2 3 2 2 2 2 2 2 4 3 4 4 4 4 2 2 4
2 3 4 5 5 4 5 6 3 1 1 2 2 1 1 2 3 3 3 3 3 4 5 4 3 2 2 2 3 4 4 4 5 5 4 4 3 2
3 4 5 5 4 4 4 4 3 1 0 0 1 0 1 1 2 2 2 3 3 3 3 5 5 3 2 2 3 3 4 4 6 5 5 3 4 4
4 3 3 3 3 3 3 3 3 2 1 1 2 1 1 0 0 1 1 1 1 2 3 3 3 3 2 1 3 4 4 4 5 6 5 5 5 5
2 2 2 2 2 2 3 3 2 2 2 2 3 3 3 3 2 1 1 1 1 1 1 2 3 2 2 2 2 2 3 3 4 5 5 5 7 7
0 1 2 2 3 3 3 3 3 3 3 3 4 5 5 4 4 3 3 2 2 2 1 1 0 1 1 1 2 2 2 3 4 5 5 4 5 6
0 1 2 3 3 3 4 4 4 4 4 4 4 5 5 5 5 5 5 4 3 2 2 2 2 2 2 1 0 1 2 2 3 4 4 3 4 4
1 2 3 3 3 3 4 4 4 4 5 4 4 5 5 6 6 6 6 6 4 4 4 3 2 2 2 2 1 0 1 2 2 2 3 4 5 6
2 2 3 4 4 4 4 4 3 3 4 4 5 4 4 6 7 7 7 7 6 6 5 3 2 3 3 3 2 1 2 3 1 3 5 4 4 6
1 1 2 3 3 4 4 5 5 4 4 4 4 4 3 4 5 5 6 6 6 6 5 4 3 3 3 3 3 2 0 2 3 4 3 2 5 8
Wind_Direction
226 222 218 207 204 207 192 191 187 230 306 321 337 27 122 125 164 158 143 150 163 179 191 195 194 193 197 202 206 212 221 230 237 243 250 257 262 265
228 224 227 219 218 216 207 203 198 179 223 270 315 346 142 158 188 200 197 199 205 207 211 211 206 204 206 209 211 214 220 229 235 240 245 249 252 256
295 256 254 245 236 223 207 198 198 185 197 222 251 358 131 167 183 208 229 242 240 226 220 218 217 218 218 218 219 220 225 232 237 242 246 250 252 256
343 332 313 287 252 237 213 205 202 197 185 194 195 257 101 158 182 205 233 239 242 241 235 232 232 232 229 227 228 229 232 236 240 244 250 252 254 258
11 11 4 341 272 262 237 213 203 192 182 175 182 189 151 69 134 144 220 279 255 245 236 239 242 244 245 243 241 239 241 245 248 251 253 256 259 262
42 38 32 31 19 353 287 212 179 162 149 146 151 160 149 83 76 94 66 17 27 38 47 265 252 254 256 257 256 252 247 246 247 251 256 261 263 263
41 30 27 43 52 49 51 73 117 118 112 111 125 134 128 111 89 68 62 325 351 2 15 38 36 30 320 272 266 256 244 236 233 238 245 253 257 251
35 20 19 27 47 64 64 65 68 77 88 104 114 100 85 66 84 90 67 23 342 355 353 8 34 59 48 40 20 359 291 249 232 226 224 225 221 211
42 29 26 15 27 55 62 62 59 55 53 72 81 64 61 23 29 43 356 257 253 338 337 357 28 50 46 46 40 40 30 13 272 230 202 187 186 184
43 38 35 21 28 54 63 58 51 40 34 45 78 86 75 40 22 311 265 260 279 15 2 358 12 3 359 50 44 48 48 42 42 54 182 185 189 191
29 32 40 35 37 57 63 56 46 28 26 48 67 72 71 61 38 110 55 64 56 44 12 10 350 326 334 357 27 35 47 48 42 39 116 209 224 231
14 23 41 50 48 55 59 58 48 18 8 23 33 33 37 41 40 47 67 78 63 30 0 354 319 318 344 322 349 19 29 33 31 14 348 280 218 229
13 359 2 22 42 47 55 63 72 66 42 41 35 29 28 28 27 25 20 48 80 19 334 323 312 326 4 330 339 10 26 18 10 1 344 295 232 240
296 337 338 353 10 20 22 358 44 77 71 54 37 22 19 12 357 359 14 25 34 17 349 332 335 353 356 7 355 353 10 15 4 358 360 354 246 238
347 340 345 358 9 15 19 22 24 41 69 69 45 11 354 335 334 345 6 21 43 43 33 24 8 7 23 29 11 356 350 346 353 353 350 3 9 358
6 359 20 40 43 14 12 21 20 340 274 197 194 268 341 355 5 0 13 12 29 19 33 42 35 46 71 59 50 28 8 354 347 344 342 357 18 15
2 4 12 12 7 360 354 354 351 346 306 254 222 217 214 211 270 324 358 33 43 1 350 2 37 69 51 43 56 36 18 14 2 350 353 7 17 17
26 346 335 336 330 324 325 329 322 315 302 278 254 235 220 202 196 194 232 252 252 271 312 347 358 52 80 82 31 25 23 8 358 4 10 12 13 13
143 269 285 295 296 295 292 288 288 294 290 278 258 243 231 208 181 183 192 210 230 240 240 250 321 114 106 71 31 355 2 11 9 15 13 1 350 347
24 300 298 295 290 287 284 279 279 289 290 280 262 246 228 213 193 187 191 200 207 209 202 198 203 196 186 176 4 344 319 332 10 6 350 331 321 306
28 359 342 333 325 313 300 286 277 279 288 292 278 255 229 216 214 201 191 189 190 195 201 202 196 185 169 168 184 101 355 306 272 315 333 337 347 354
67 34 11 0 351 344 334 321 308 305 309 305 298 279 243 220 219 211 196 185 191 198 201 180 147 167 176 168 155 110 347 348 324 289 240 266 325 342
94 52 26 10 4 359 0 4 9 5 359 343 325 308 274 237 228 223 217 208 196 194 192 180 172 175 168 162 157 148 66 356 349 347 343 312 285 281